Weather History for Ezeiza, Argentina

Change the Weather History Date:

Sunday, January 20, 2013

  Actual Average Record
Temperature  
Mean Temperature 68 °F -  
Max Temperature 80 °F 84 °F 102 °F (2000)
Min Temperature 56 °F 62 °F 51 °F (2005)
Cooling Degree Days 3    
Growing Degree Days 18 (Base 50)    
Moisture  
Dew Point 57 °F    
Average Humidity 69    
Maximum Humidity 94    
Minimum Humidity 36    
Precipitation  
Precipitation 0.00 in 0.13 in - ()
Sea Level Pressure  
Sea Level Pressure 30.20 in    
Wind  
Wind Speed 7 mph ()    
Max Wind Speed 16 mph    
Max Gust Speed -    
Visibility 6.0 miles    
Events Rain    
Averages and records for this station are not official NWS values.
T = Trace of Precipitation, MM = Missing Value Source: Averaged Metar Reports

Daily Weather History Graph

Daily Weather History Graph

Search for Another Location

Airport:

Trip Planner

Search our weather history database for the weather conditions in past years. The results will help you decide how hot, cold, wet, or windy it might be!

Date:

Astronomy

Jan. 20, 2013 Rise Set
Actual Time 6:01 AM ART 8:08 PM ART
Civil Twilight 5:33 AM ART 8:36 PM ART
Nautical Twilight 4:58 AM ART 9:11 PM ART
Astronomical Twilight 4:21 AM ART 9:48 PM ART
Moon 2:56 PM ART (1/20) 12:48 AM ART (1/20)
Length of Visible Light 15h 03m
Length of Day
14h 06m
Waxing Gibbous, 65% of the Moon is Illuminated
Jan 20
Waxing Gibbous
Jan 27
Full
Feb 3
Last Quarter
Feb 10
New
Feb 17
First Quarter

Hourly Weather History & Observations

Time (ART) Temp. Dew Point Humidity Pressure Visibility Wind Dir Wind Speed Gust Speed Precip Events Conditions
12:00 AM 63 °F 58 °F 78% 30.20 in 6 mi SE 9.2 mph - -   Scattered Clouds
12:00 AM 62.6 °F 57.2 °F 82% 30.18 in - SE 9.2 mph - N/A   Clear
1:00 AM 60.8 °F 57.2 °F 88% 30.18 in - SSE 6.9 mph - N/A   Clear
2:00 AM 60.8 °F 57.2 °F 88% 30.18 in - SSE 8.1 mph - N/A   Clear
3:00 AM 59 °F 56 °F 88% 30.19 in 6 mi SSE 8.1 mph - -  
3:00 AM 59.0 °F 57.2 °F 94% 30.18 in - SSE 8.1 mph - N/A   Clear
4:00 AM 59.0 °F 55.4 °F 88% 30.18 in - SSE 9.2 mph - N/A   Clear
5:00 AM 59.0 °F 55.4 °F 88% 30.18 in 6.2 mi SE 4.6 mph - N/A   Scattered Clouds
6:00 AM 59.0 °F 55.4 °F 88% 30.21 in 6.2 mi SSE 3.5 mph - N/A   Mostly Cloudy
7:00 AM 57.2 °F 53.6 °F 88% 30.21 in 6.2 mi SSW 3.5 mph - N/A   Mostly Cloudy
8:00 AM 59.0 °F 55.4 °F 88% 30.24 in 3.7 mi South 4.6 mph - N/A   Light Drizzle
8:24 AM 59.0 °F 55.4 °F 88% 30.24 in 5.0 mi SE 4.6 mph - N/A   Mostly Cloudy
9:00 AM 64 °F 57 °F 73% 30.26 in 6 mi 3.5 mph - - Rain Light Drizzle
9:00 AM 64.4 °F 57.2 °F 77% 30.24 in 6.2 mi Variable 3.5 mph - N/A   Mostly Cloudy
10:00 AM 68.0 °F 60.8 °F 78% 30.24 in 6.2 mi SE 9.2 mph - N/A   Mostly Cloudy
11:00 AM 71.6 °F 62.6 °F 73% 30.24 in 6.2 mi South 2.3 mph - N/A   Mostly Cloudy
12:00 PM 76 °F 60 °F 47% 30.25 in 6 mi ESE 8.1 mph - -   Mostly Cloudy
12:00 PM 75.2 °F 59.0 °F 57% 30.24 in 6.2 mi SE 9.2 mph - N/A   Scattered Clouds
1:00 PM 75.2 °F 59.0 °F 57% 30.21 in 6.2 mi East 4.6 mph - N/A   Scattered Clouds
2:00 PM 77.0 °F 57.2 °F 50% 30.21 in 6.2 mi ENE 12.7 mph - N/A   Scattered Clouds
3:00 PM 78 °F 59 °F 43% 30.20 in 6 mi ESE 11.5 mph - -   Mostly Cloudy
3:00 PM 78.8 °F 59.0 °F 51% 30.18 in 6.2 mi ESE 12.7 mph - N/A   Scattered Clouds
4:00 PM 78.8 °F 53.6 °F 42% 30.18 in 6.2 mi East 15.0 mph - N/A   Scattered Clouds
5:00 PM 77.0 °F 55.4 °F 47% 30.15 in 6.2 mi East 11.5 mph - N/A   Scattered Clouds
6:00 PM 78 °F 56 °F 36% 30.17 in 6 mi East 16.1 mph - -   Mostly Cloudy
6:00 PM 77.0 °F 55.4 °F 47% 30.15 in - East 16.1 mph - N/A   Clear
7:00 PM 77.0 °F 57.2 °F 50% 30.15 in - ESE 12.7 mph - N/A   Clear
8:00 PM 73.4 °F 57.2 °F 57% 30.15 in - East 11.5 mph - N/A   Clear
9:00 PM 71 °F 57 °F 51% 30.19 in 6 mi ESE 9.2 mph - -   Scattered Clouds
9:00 PM 69.8 °F 57.2 °F 64% 30.18 in - ESE 10.4 mph - N/A   Clear
10:00 PM 68.0 °F 59.0 °F 73% 30.18 in - ESE 9.2 mph - N/A   Clear
11:00 PM 66.2 °F 59.0 °F 78% 30.18 in - ESE 8.1 mph - N/A   Clear